Time,TemperatureF,DewpointF,PressureIn,WindDirection,WindDirectionDegrees,WindSpeedMPH,WindSpeedGustMPH,Humidity,HourlyPrecipIn,Conditions,Clouds,dailyrainin,SoftwareType,DateUTC
2013-10-23 00:01:00,45.0,37.9,29.76,NNW,336,1.0,2.0,76,0.00,,,0.00,Wunderground v.1.15,2013-10-23 04:01:00,
2013-10-23 00:03:00,45.0,37.2,29.77,NNW,340,1.0,2.0,74,0.00,,,0.00,Wunderground v.1.15,2013-10-23 04:03:00,
2013-10-23 00:04:00,45.0,37.2,29.77,NW,319,1.0,2.0,74,0.00,,,0.00,Wunderground v.1.15,2013-10-23 04:04:00,
2013-10-23 00:09:00,45.0,37.9,29.77,NW,304,1.0,2.0,76,0.00,,,0.00,Wunderground v.1.15,2013-10-23 04:09:00,
2013-10-23 00:11:00,45.0,37.6,29.77,NW,315,1.0,2.0,75,0.00,,,0.00,Wunderground v.1.15,2013-10-23 04:11:00,
2013-10-23 00:16:00,44.7,37.6,29.77,NW,315,1.0,2.0,76,0.00,,,0.00,Wunderground v.1.15,2013-10-23 04:16:00,
2013-10-23 00:22:00,44.3,37.2,29.77,NW,319,0.0,1.0,76,0.00,,,0.00,Wunderground v.1.15,2013-10-23 04:22:00,
2013-10-23 00:27:00,43.9,36.8,29.77,NW,319,1.0,1.0,76,0.00,,,0.00,Wunderground v.1.15,2013-10-23 04:27:00,
2013-10-23 00:33:00,43.4,36.7,29.77,WNW,295,1.0,1.0,77,0.00,,,0.00,Wunderground v.1.15,2013-10-23 04:33:00,
2013-10-23 00:39:00,43.0,36.6,29.77,NW,305,1.0,2.0,78,0.00,,,0.00,Wunderground v.1.15,2013-10-23 04:39:00,
2013-10-23 00:46:00,42.5,36.1,29.77,NW,304,1.0,2.0,78,0.00,,,0.00,Wunderground v.1.15,2013-10-23 04:46:00,
2013-10-23 00:52:00,42.2,35.8,29.77,NW,306,1.0,1.0,78,0.00,,,0.00,Wunderground v.1.15,2013-10-23 04:52:00,
2013-10-23 00:58:00,41.7,35.7,29.77,NW,315,1.0,2.0,79,0.00,,,0.00,Wunderground v.1.15,2013-10-23 04:58:00,
2013-10-23 01:04:00,41.3,35.3,29.77,WNW,295,1.0,2.0,79,0.00,,,0.00,Wunderground v.1.15,2013-10-23 05:04:00,
2013-10-23 01:09:00,40.9,34.9,29.78,NW,311,1.0,2.0,79,0.00,,,0.00,Wunderground v.1.15,2013-10-23 05:09:00,
2013-10-23 01:16:00,40.6,34.9,29.78,NW,315,1.0,1.0,80,0.00,,,0.00,Wunderground v.1.15,2013-10-23 05:16:00,
2013-10-23 01:22:00,40.4,34.7,29.78,NW,315,1.0,1.0,80,0.00,,,0.00,Wunderground v.1.15,2013-10-23 05:22:00,
2013-10-23 01:28:00,40.0,34.3,29.78,NW,315,1.0,1.0,80,0.00,,,0.00,Wunderground v.1.15,2013-10-23 05:28:00,
2013-10-23 01:34:00,39.7,34.3,29.78,NW,315,1.0,1.0,81,0.00,,,0.00,Wunderground v.1.15,2013-10-23 05:34:00,
2013-10-23 01:41:00,39.3,34.0,29.78,NW,315,1.0,1.0,81,0.00,,,0.00,Wunderground v.1.15,2013-10-23 05:41:00,
2013-10-23 01:47:00,39.0,34.0,29.78,NW,315,1.0,1.0,82,0.00,,,0.00,Wunderground v.1.15,2013-10-23 05:47:00,
2013-10-23 01:53:00,38.7,33.7,29.78,NW,315,1.0,1.0,82,0.00,,,0.00,Wunderground v.1.15,2013-10-23 05:53:00,
2013-10-23 01:59:00,38.5,33.5,29.78,NW,315,1.0,1.0,82,0.00,,,0.00,Wunderground v.1.15,2013-10-23 05:59:00,
2013-10-23 02:06:00,38.1,33.1,29.77,NW,315,1.0,1.0,82,0.00,,,0.00,Wunderground v.1.15,2013-10-23 06:06:00,
2013-10-23 02:12:00,37.9,32.9,29.77,NW,315,1.0,1.0,82,0.00,,,0.00,Wunderground v.1.15,2013-10-23 06:12:00,
2013-10-23 02:18:00,37.5,32.8,29.77,NW,315,1.0,1.0,83,0.00,,,0.00,Wunderground v.1.15,2013-10-23 06:18:00,
2013-10-23 02:24:00,37.3,32.6,29.77,NW,315,1.0,1.0,83,0.00,,,0.00,Wunderground v.1.15,2013-10-23 06:24:00,
2013-10-23 02:31:00,36.9,32.2,29.77,NW,315,1.0,1.0,83,0.00,,,0.00,Wunderground v.1.15,2013-10-23 06:31:00,
2013-10-23 02:37:00,36.7,32.0,29.77,NNW,331,1.0,2.0,83,0.00,,,0.00,Wunderground v.1.15,2013-10-23 06:37:00,
2013-10-23 02:43:00,36.5,31.8,29.77,NW,306,1.0,2.0,83,0.00,,,0.00,Wunderground v.1.15,2013-10-23 06:43:00,
2013-10-23 02:49:00,36.4,31.7,29.77,NW,306,1.0,2.0,83,0.00,,,0.00,Wunderground v.1.15,2013-10-23 06:49:00,
2013-10-23 02:54:00,36.2,31.5,29.77,NW,306,0.0,1.0,83,0.00,,,0.00,Wunderground v.1.15,2013-10-23 06:54:00,
2013-10-23 03:01:00,36.1,31.4,29.77,NW,306,0.0,0.0,83,0.00,,,0.00,Wunderground v.1.15,2013-10-23 07:01:00,
2013-10-23 03:06:00,36.0,31.3,29.77,NW,306,0.0,0.0,83,0.00,,,0.00,Wunderground v.1.15,2013-10-23 07:06:00,
2013-10-23 03:12:00,35.8,31.4,29.77,NW,306,0.0,1.0,84,0.00,,,0.00,Wunderground v.1.15,2013-10-23 07:12:00,
2013-10-23 03:17:00,35.7,31.3,29.77,NW,306,0.0,1.0,84,0.00,,,0.00,Wunderground v.1.15,2013-10-23 07:17:00,
2013-10-23 03:23:00,35.6,31.2,29.77,NW,306,0.0,0.0,84,0.00,,,0.00,Wunderground v.1.15,2013-10-23 07:23:00,
2013-10-23 03:29:00,35.4,30.8,29.78,NW,306,0.0,0.0,83,0.00,,,0.00,Wunderground v.1.15,2013-10-23 07:29:00,
2013-10-23 03:36:00,35.2,30.6,29.77,NW,306,0.0,1.0,83,0.00,,,0.00,Wunderground v.1.15,2013-10-23 07:36:00,
2013-10-23 03:41:00,35.1,30.8,29.77,NW,306,0.0,0.0,84,0.00,,,0.00,Wunderground v.1.15,2013-10-23 07:41:00,
2013-10-23 03:47:00,34.8,30.2,29.77,NW,306,0.0,0.0,83,0.00,,,0.00,Wunderground v.1.15,2013-10-23 07:47:00,
2013-10-23 03:53:00,34.5,30.2,29.77,NW,306,0.0,1.0,84,0.00,,,0.00,Wunderground v.1.15,2013-10-23 07:53:00,
2013-10-23 03:59:00,34.4,30.1,29.77,NW,306,1.0,2.0,84,0.00,,,0.00,Wunderground v.1.15,2013-10-23 07:59:00,
2013-10-23 04:06:00,34.4,30.1,29.76,NW,306,1.0,1.0,84,0.00,,,0.00,Wunderground v.1.15,2013-10-23 08:06:00,
2013-10-23 04:12:00,34.3,30.0,29.77,NW,306,0.0,0.0,84,0.00,,,0.00,Wunderground v.1.15,2013-10-23 08:12:00,
2013-10-23 04:18:00,34.1,29.5,29.76,NW,306,0.0,0.0,83,0.00,,,0.00,Wunderground v.1.15,2013-10-23 08:18:00,
2013-10-23 04:24:00,34.0,29.4,29.76,NW,306,0.0,0.0,83,0.00,,,0.00,Wunderground v.1.15,2013-10-23 08:24:00,
2013-10-23 04:31:00,33.8,29.5,29.75,NW,306,0.0,0.0,84,0.00,,,0.00,Wunderground v.1.15,2013-10-23 08:31:00,
2013-10-23 04:37:00,33.7,29.1,29.76,NW,306,0.0,0.0,83,0.00,,,0.00,Wunderground v.1.15,2013-10-23 08:37:00,
2013-10-23 04:43:00,33.6,29.0,29.76,NW,306,0.0,0.0,83,0.00,,,0.00,Wunderground v.1.15,2013-10-23 08:43:00,
2013-10-23 04:49:00,33.5,28.9,29.76,NW,306,0.0,0.0,83,0.00,,,0.00,Wunderground v.1.15,2013-10-23 08:49:00,
2013-10-23 04:54:00,33.4,28.8,29.76,NW,306,0.0,0.0,83,0.00,,,0.00,Wunderground v.1.15,2013-10-23 08:54:00,
2013-10-23 05:01:00,33.2,28.6,29.76,NW,306,0.0,0.0,83,0.00,,,0.00,Wunderground v.1.15,2013-10-23 09:01:00,
2013-10-23 05:06:00,33.2,28.6,29.76,NW,306,0.0,1.0,83,0.00,,,0.00,Wunderground v.1.15,2013-10-23 09:06:00,
2013-10-23 05:12:00,33.1,28.5,29.75,NW,306,0.0,1.0,83,0.00,,,0.00,Wunderground v.1.15,2013-10-23 09:12:00,
2013-10-23 05:18:00,33.1,28.5,29.75,NW,306,1.0,2.0,83,0.00,,,0.00,Wunderground v.1.15,2013-10-23 09:18:00,
2013-10-23 05:23:00,33.0,28.4,29.75,NW,306,1.0,1.0,83,0.00,,,0.00,Wunderground v.1.15,2013-10-23 09:23:00,
2013-10-23 05:28:00,33.0,28.4,29.75,NW,306,0.0,2.0,83,0.00,,,0.00,Wunderground v.1.15,2013-10-23 09:28:00,
2013-10-23 05:34:00,33.0,28.4,29.75,NW,306,1.0,1.0,83,0.00,,,0.00,Wunderground v.1.15,2013-10-23 09:34:00,
2013-10-23 05:41:00,33.1,28.5,29.75,NW,306,1.0,1.0,83,0.00,,,0.00,Wunderground v.1.15,2013-10-23 09:41:00,
2013-10-23 05:47:00,33.2,28.6,29.75,NW,306,1.0,1.0,83,0.00,,,0.00,Wunderground v.1.15,2013-10-23 09:47:00,
2013-10-23 05:53:00,33.2,28.6,29.75,NW,306,1.0,1.0,83,0.00,,,0.00,Wunderground v.1.15,2013-10-23 09:53:00,
2013-10-23 05:59:00,33.2,28.6,29.75,NW,306,0.0,1.0,83,0.00,,,0.00,Wunderground v.1.15,2013-10-23 09:59:00,
2013-10-23 06:04:00,33.2,28.6,29.75,NW,306,0.0,0.0,83,0.00,,,0.00,Wunderground v.1.15,2013-10-23 10:04:00,
2013-10-23 06:09:00,33.1,28.5,29.75,NW,306,0.0,0.0,83,0.00,,,0.00,Wunderground v.1.15,2013-10-23 10:09:00,
2013-10-23 06:16:00,33.1,28.5,29.75,NW,306,0.0,1.0,83,0.00,,,0.00,Wunderground v.1.15,2013-10-23 10:16:00,
2013-10-23 06:21:00,33.1,28.5,29.75,NW,306,0.0,0.0,83,0.00,,,0.00,Wunderground v.1.15,2013-10-23 10:21:00,
2013-10-23 06:26:00,33.1,28.5,29.75,NW,306,0.0,0.0,83,0.00,,,0.00,Wunderground v.1.15,2013-10-23 10:26:00,
2013-10-23 06:32:00,33.2,28.6,29.74,NW,306,0.0,1.0,83,0.00,,,0.00,Wunderground v.1.15,2013-10-23 10:32:00,
2013-10-23 06:38:00,33.2,28.6,29.74,NW,306,0.0,1.0,83,0.00,,,0.00,Wunderground v.1.15,2013-10-23 10:38:00,
2013-10-23 06:43:00,33.2,28.6,29.75,NW,306,0.0,0.0,83,0.00,,,0.00,Wunderground v.1.15,2013-10-23 10:43:00,
2013-10-23 06:49:00,33.2,28.6,29.75,NW,306,0.0,0.0,83,0.00,,,0.00,Wunderground v.1.15,2013-10-23 10:49:00,
2013-10-23 06:56:00,33.2,28.6,29.75,NW,306,0.0,1.0,83,0.00,,,0.00,Wunderground v.1.15,2013-10-23 10:56:00,
2013-10-23 07:02:00,33.3,28.7,29.75,NW,306,0.0,0.0,83,0.00,,,0.00,Wunderground v.1.15,2013-10-23 11:02:00,
2013-10-23 07:07:00,33.4,28.8,29.75,NW,306,0.0,0.0,83,0.00,,,0.00,Wunderground v.1.15,2013-10-23 11:07:00,
2013-10-23 07:13:00,33.3,28.7,29.75,NW,306,0.0,0.0,83,0.00,,,0.00,Wunderground v.1.15,2013-10-23 11:13:00,
2013-10-23 07:19:00,33.2,28.6,29.74,NW,306,0.0,1.0,83,0.00,,,0.00,Wunderground v.1.15,2013-10-23 11:19:00,
2013-10-23 07:26:00,33.0,28.4,29.74,NW,306,0.0,1.0,83,0.00,,,0.00,Wunderground v.1.15,2013-10-23 11:26:00,
2013-10-23 07:31:00,33.0,28.4,29.74,NW,306,1.0,3.0,83,0.00,,,0.00,Wunderground v.1.15,2013-10-23 11:31:00,
2013-10-23 07:36:00,33.1,28.5,29.75,NW,306,1.0,3.0,83,0.00,,,0.00,Wunderground v.1.15,2013-10-23 11:36:00,
2013-10-23 07:42:00,33.1,28.5,29.75,NW,306,1.0,1.0,83,0.00,,,0.00,Wunderground v.1.15,2013-10-23 11:42:00,
2013-10-23 07:47:00,33.2,28.6,29.75,NW,306,1.0,1.0,83,0.00,,,0.00,Wunderground v.1.15,2013-10-23 11:47:00,
2013-10-23 07:53:00,33.3,28.7,29.76,NW,306,0.0,1.0,83,0.00,,,0.00,Wunderground v.1.15,2013-10-23 11:53:00,
2013-10-23 07:59:00,33.5,28.9,29.75,NW,306,0.0,1.0,83,0.00,,,0.00,Wunderground v.1.15,2013-10-23 11:59:00,
2013-10-23 08:06:00,33.7,29.1,29.75,NW,306,0.0,1.0,83,0.00,,,0.00,Wunderground v.1.15,2013-10-23 12:06:00,
2013-10-23 08:12:00,34.2,29.6,29.75,NW,306,1.0,1.0,83,0.00,,,0.00,Wunderground v.1.15,2013-10-23 12:12:00,
2013-10-23 08:17:00,34.4,29.8,29.75,NW,306,0.0,1.0,83,0.00,,,0.00,Wunderground v.1.15,2013-10-23 12:17:00,
2013-10-23 08:23:00,35.3,30.7,29.75,NW,306,0.0,1.0,83,0.00,,,0.00,Wunderground v.1.15,2013-10-23 12:23:00,
2013-10-23 08:28:00,36.0,31.3,29.75,NW,306,0.0,1.0,83,0.00,,,0.00,Wunderground v.1.15,2013-10-23 12:28:00,
2013-10-23 08:33:00,36.9,32.2,29.75,NW,306,1.0,2.0,83,0.00,,,0.00,Wunderground v.1.15,2013-10-23 12:33:00,
2013-10-23 08:39:00,38.0,33.3,29.74,NW,323,1.0,3.0,83,0.00,,,0.00,Wunderground v.1.15,2013-10-23 12:39:00,
2013-10-23 08:46:00,39.1,34.4,29.75,NW,318,2.0,5.0,83,0.00,,,0.00,Wunderground v.1.15,2013-10-23 12:46:00,
2013-10-23 08:51:00,40.1,35.7,29.75,NNW,329,2.0,2.0,84,0.00,,,0.00,Wunderground v.1.15,2013-10-23 12:51:00,
2013-10-23 08:57:00,41.4,36.0,29.75,WNW,301,2.0,4.0,81,0.00,,,0.00,Wunderground v.1.15,2013-10-23 12:57:00,
2013-10-23 09:03:00,42.4,36.0,29.75,NW,326,2.0,2.0,78,0.00,,,0.00,Wunderground v.1.15,2013-10-23 13:03:00,
2013-10-23 09:09:00,43.1,36.4,29.74,WNW,292,2.0,4.0,77,0.00,,,0.00,Wunderground v.1.15,2013-10-23 13:09:00,
2013-10-23 09:14:00,43.6,36.9,29.74,NNW,332,2.0,3.0,77,0.00,,,0.00,Wunderground v.1.15,2013-10-23 13:14:00,
2013-10-23 09:21:00,44.1,37.3,29.74,WNW,296,1.0,3.0,77,0.00,,,0.00,Wunderground v.1.15,2013-10-23 13:21:00,
2013-10-23 09:27:00,44.4,37.3,29.74,WNW,298,1.0,3.0,76,0.00,,,0.00,Wunderground v.1.15,2013-10-23 13:27:00,
2013-10-23 09:33:00,44.7,37.3,29.73,WNW,298,1.0,1.0,75,0.00,,,0.00,Wunderground v.1.15,2013-10-23 13:33:00,
2013-10-23 09:39:00,45.0,36.9,29.73,WNW,298,1.0,2.0,73,0.00,,,0.00,Wunderground v.1.15,2013-10-23 13:39:00,
2013-10-23 09:46:00,45.3,37.8,29.73,WNW,298,1.0,1.0,75,0.00,,,0.00,Wunderground v.1.15,2013-10-23 13:46:00,
2013-10-23 09:52:00,45.6,37.4,29.73,WNW,296,1.0,2.0,73,0.00,,,0.00,Wunderground v.1.15,2013-10-23 13:52:00,
2013-10-23 09:58:00,45.9,37.4,29.73,NW,311,1.0,2.0,72,0.00,,,0.00,Wunderground v.1.15,2013-10-23 13:58:00,
2013-10-23 10:04:00,46.1,37.6,29.73,NW,306,1.0,2.0,72,0.00,,,0.00,Wunderground v.1.15,2013-10-23 14:04:00,
2013-10-23 10:11:00,46.4,38.2,29.73,WNW,301,1.0,1.0,73,0.00,,,0.00,Wunderground v.1.15,2013-10-23 14:11:00,
2013-10-23 10:17:00,46.7,37.8,29.73,WNW,300,1.0,2.0,71,0.00,,,0.00,Wunderground v.1.15,2013-10-23 14:17:00,
2013-10-23 10:23:00,46.9,38.0,29.73,NW,318,1.0,1.0,71,0.00,,,0.00,Wunderground v.1.15,2013-10-23 14:23:00,
2013-10-23 10:29:00,47.2,37.5,29.73,NW,318,1.0,1.0,69,0.00,,,0.00,Wunderground v.1.15,2013-10-23 14:29:00,
2013-10-23 10:34:00,47.4,36.6,29.73,SW,229,1.0,3.0,66,0.00,,,0.00,Wunderground v.1.15,2013-10-23 14:34:00,
2013-10-23 10:41:00,47.8,37.0,29.72,WNW,291,1.0,1.0,66,0.00,,,0.00,Wunderground v.1.15,2013-10-23 14:41:00,
2013-10-23 10:47:00,48.1,35.3,29.72,NNW,331,2.0,3.0,61,0.00,,,0.00,Wunderground v.1.15,2013-10-23 14:47:00,
2013-10-23 10:53:00,48.1,34.9,29.72,NW,304,2.0,3.0,60,0.00,,,0.00,Wunderground v.1.15,2013-10-23 14:53:00,
2013-10-23 10:59:00,48.2,36.2,29.72,NW,309,2.0,3.0,63,0.00,,,0.00,Wunderground v.1.15,2013-10-23 14:59:00,
2013-10-23 11:06:00,48.2,35.0,29.72,WNW,298,1.0,2.0,60,0.00,,,0.00,Wunderground v.1.15,2013-10-23 15:06:00,
2013-10-23 11:12:00,48.3,35.5,29.72,SW,233,2.0,2.0,61,0.00,,,0.00,Wunderground v.1.15,2013-10-23 15:12:00,
2013-10-23 11:18:00,48.5,35.7,29.71,West,269,1.0,2.0,61,0.00,,,0.00,Wunderground v.1.15,2013-10-23 15:18:00,
2013-10-23 11:23:00,48.7,36.7,29.71,West,269,1.0,1.0,63,0.00,,,0.00,Wunderground v.1.15,2013-10-23 15:23:00,
2013-10-23 11:29:00,48.7,35.0,29.70,West,264,0.0,1.0,59,0.00,,,0.00,Wunderground v.1.15,2013-10-23 15:29:00,
2013-10-23 11:34:00,48.7,35.8,29.70,West,265,1.0,2.0,61,0.00,,,0.00,Wunderground v.1.15,2013-10-23 15:34:00,
2013-10-23 11:41:00,48.7,35.0,29.69,West,267,1.0,1.0,59,0.00,,,0.00,Wunderground v.1.15,2013-10-23 15:41:00,
2013-10-23 11:46:00,48.8,34.7,29.69,NW,319,1.0,2.0,58,0.00,,,0.00,Wunderground v.1.15,2013-10-23 15:46:00,
2013-10-23 11:52:00,48.7,35.8,29.69,NW,319,0.0,1.0,61,0.00,,,0.00,Wunderground v.1.15,2013-10-23 15:52:00,
2013-10-23 11:58:00,48.7,34.6,29.69,NW,319,0.0,1.0,58,0.00,,,0.00,Wunderground v.1.15,2013-10-23 15:58:00,
2013-10-23 12:04:00,48.8,35.5,29.68,NW,318,0.0,1.0,60,0.00,,,0.00,Wunderground v.1.15,2013-10-23 16:04:00,
2013-10-23 12:09:00,49.2,35.0,29.68,NW,318,1.0,1.0,58,0.00,,,0.00,Wunderground v.1.15,2013-10-23 16:09:00,
2013-10-23 12:16:00,49.5,35.8,29.68,NW,309,1.0,2.0,59,0.00,,,0.00,Wunderground v.1.15,2013-10-23 16:16:00,
2013-10-23 12:22:00,49.4,34.8,29.68,NW,311,1.0,2.0,57,0.00,,,0.00,Wunderground v.1.15,2013-10-23 16:22:00,
2013-10-23 12:27:00,49.2,34.6,29.68,WNW,295,1.0,3.0,57,0.00,,,0.00,Wunderground v.1.15,2013-10-23 16:27:00,
2013-10-23 12:33:00,49.0,34.9,29.68,WNW,300,2.0,4.0,58,0.00,,,0.00,Wunderground v.1.15,2013-10-23 16:33:00,
2013-10-23 12:38:00,48.9,35.6,29.68,NNE,29,1.0,4.0,60,0.00,,,0.00,Wunderground v.1.15,2013-10-23 16:38:00,
2013-10-23 12:43:00,49.0,36.1,29.67,WNW,296,1.0,2.0,61,0.00,,,0.00,Wunderground v.1.15,2013-10-23 16:43:00,
2013-10-23 12:48:00,49.0,34.9,29.67,NNW,329,1.0,2.0,58,0.00,,,0.00,Wunderground v.1.15,2013-10-23 16:48:00,
2013-10-23 12:53:00,48.9,35.2,29.67,NW,322,1.0,1.0,59,0.00,,,0.00,Wunderground v.1.15,2013-10-23 16:53:00,
2013-10-23 12:59:00,48.8,35.5,29.67,North,355,1.0,1.0,60,0.00,,,0.00,Wunderground v.1.15,2013-10-23 16:59:00,
2013-10-23 13:04:00,48.9,35.2,29.67,NW,306,2.0,2.0,59,0.00,,,0.00,Wunderground v.1.15,2013-10-23 17:04:00,
2013-10-23 13:11:00,48.9,35.2,29.66,NNW,329,2.0,3.0,59,0.00,,,0.00,Wunderground v.1.15,2013-10-23 17:11:00,
2013-10-23 13:16:00,49.0,34.9,29.66,North,350,3.0,4.0,58,0.00,,,0.00,Wunderground v.1.15,2013-10-23 17:16:00,
2013-10-23 13:21:00,49.0,34.9,29.65,North,360,3.0,3.0,58,0.00,,,0.00,Wunderground v.1.15,2013-10-23 17:21:00,
2013-10-23 13:27:00,48.9,34.8,29.64,North,11,2.0,3.0,58,0.00,,,0.00,Wunderground v.1.15,2013-10-23 17:27:00,
2013-10-23 13:32:00,48.9,35.2,29.64,WNW,303,1.0,1.0,59,0.00,,,0.00,Wunderground v.1.15,2013-10-23 17:32:00,
2013-10-23 13:38:00,49.0,35.3,29.64,NW,310,1.0,2.0,59,0.00,,,0.00,Wunderground v.1.15,2013-10-23 17:38:00,
2013-10-23 13:44:00,48.8,33.8,29.63,North,5,1.0,2.0,56,0.00,,,0.00,Wunderground v.1.15,2013-10-23 17:44:00,
2013-10-23 13:51:00,48.7,34.1,29.63,WNW,302,1.0,1.0,57,0.00,,,0.00,Wunderground v.1.15,2013-10-23 17:51:00,
2013-10-23 13:57:00,48.7,35.0,29.62,NW,306,1.0,2.0,59,0.00,,,0.00,Wunderground v.1.15,2013-10-23 17:57:00,
2013-10-23 14:03:00,48.8,34.7,29.62,NW,307,1.0,3.0,58,0.00,,,0.00,Wunderground v.1.15,2013-10-23 18:03:00,
2013-10-23 14:09:00,48.9,34.3,29.61,NNW,336,1.0,3.0,57,0.00,,,0.00,Wunderground v.1.15,2013-10-23 18:09:00,
2013-10-23 14:16:00,48.8,34.7,29.60,NNW,336,1.0,1.0,58,0.00,,,0.00,Wunderground v.1.15,2013-10-23 18:16:00,
2013-10-23 14:21:00,48.9,33.9,29.61,NNW,331,0.0,0.0,56,0.00,,,0.00,Wunderground v.1.15,2013-10-23 18:21:00,
2013-10-23 14:27:00,49.1,34.9,29.60,NNW,331,1.0,2.0,58,0.00,,,0.00,Wunderground v.1.15,2013-10-23 18:27:00,
2013-10-23 14:33:00,49.3,33.8,29.60,NW,316,1.0,1.0,55,0.00,,,0.00,Wunderground v.1.15,2013-10-23 18:33:00,
2013-10-23 14:39:00,49.2,33.3,29.59,NW,315,1.0,1.0,54,0.00,,,0.00,Wunderground v.1.15,2013-10-23 18:39:00,
2013-10-23 14:46:00,49.2,33.7,29.58,NW,315,1.0,1.0,55,0.00,,,0.00,Wunderground v.1.15,2013-10-23 18:46:00,
2013-10-23 14:52:00,49.3,34.3,29.58,NW,316,0.0,0.0,56,0.00,,,0.00,Wunderground v.1.15,2013-10-23 18:52:00,
2013-10-23 14:58:00,49.4,35.2,29.57,SW,214,1.0,2.0,58,0.00,,,0.00,Wunderground v.1.15,2013-10-23 18:58:00,
2013-10-23 15:03:00,49.5,35.8,29.58,SW,230,2.0,3.0,59,0.00,,,0.00,Wunderground v.1.15,2013-10-23 19:03:00,
2013-10-23 15:08:00,49.6,35.4,29.58,SSW,200,2.0,3.0,58,0.00,,,0.00,Wunderground v.1.15,2013-10-23 19:08:00,
2013-10-23 15:14:00,49.6,36.3,29.59,SSW,200,1.0,2.0,60,0.00,,,0.00,Wunderground v.1.15,2013-10-23 19:14:00,
2013-10-23 15:21:00,49.6,35.0,29.59,SSW,200,1.0,1.0,57,0.00,,,0.00,Wunderground v.1.15,2013-10-23 19:21:00,
2013-10-23 15:27:00,49.5,34.4,29.59,SSW,196,1.0,1.0,56,0.00,,,0.00,Wunderground v.1.15,2013-10-23 19:27:00,
2013-10-23 15:33:00,49.5,35.8,29.58,SSW,196,0.0,1.0,59,0.00,,,0.00,Wunderground v.1.15,2013-10-23 19:33:00,
2013-10-23 15:39:00,49.5,35.3,29.58,SSW,196,0.0,1.0,58,0.00,,,0.00,Wunderground v.1.15,2013-10-23 19:39:00,
2013-10-23 15:46:00,49.6,35.8,29.57,SSW,196,0.0,1.0,59,0.00,,,0.00,Wunderground v.1.15,2013-10-23 19:46:00,
2013-10-23 15:52:00,49.6,35.8,29.58,SSW,196,0.0,0.0,59,0.00,,,0.00,Wunderground v.1.15,2013-10-23 19:52:00,
2013-10-23 15:58:00,49.7,35.1,29.58,SSW,196,0.0,1.0,57,0.00,,,0.00,Wunderground v.1.15,2013-10-23 19:58:00,
2013-10-23 16:04:00,49.7,35.5,29.59,SSW,196,0.0,2.0,58,0.00,,,0.00,Wunderground v.1.15,2013-10-23 20:04:00,
2013-10-23 16:09:00,49.7,35.1,29.59,SW,235,1.0,2.0,57,0.00,,,0.00,Wunderground v.1.15,2013-10-23 20:09:00,
2013-10-23 16:16:00,49.7,35.5,29.60,West,281,1.0,2.0,58,0.00,,,0.00,Wunderground v.1.15,2013-10-23 20:16:00,
2013-10-23 16:22:00,49.5,35.3,29.59,NNW,331,1.0,1.0,58,0.00,,,0.00,Wunderground v.1.15,2013-10-23 20:22:00,
2013-10-23 16:28:00,49.3,34.7,29.58,NNW,347,1.0,1.0,57,0.00,,,0.00,Wunderground v.1.15,2013-10-23 20:28:00,
2013-10-23 16:34:00,49.2,35.0,29.58,NNW,347,1.0,1.0,58,0.00,,,0.00,Wunderground v.1.15,2013-10-23 20:34:00,
2013-10-23 16:41:00,49.2,35.5,29.57,NNW,347,0.0,0.0,59,0.00,,,0.00,Wunderground v.1.15,2013-10-23 20:41:00,
2013-10-23 16:47:00,49.2,35.9,29.58,NNW,347,0.0,2.0,60,0.00,,,0.00,Wunderground v.1.15,2013-10-23 20:47:00,
2013-10-23 16:53:00,49.1,36.6,29.59,NNW,343,1.0,1.0,62,0.00,,,0.00,Wunderground v.1.15,2013-10-23 20:53:00,
2013-10-23 16:59:00,48.9,36.4,29.60,NNW,343,1.0,1.0,62,0.00,,,0.00,Wunderground v.1.15,2013-10-23 20:59:00,
2013-10-23 17:06:00,48.6,36.2,29.59,NNW,343,0.0,1.0,62,0.00,,,0.00,Wunderground v.1.15,2013-10-23 21:06:00,
2013-10-23 17:12:00,48.3,35.9,29.59,NNW,342,0.0,0.0,62,0.00,,,0.00,Wunderground v.1.15,2013-10-23 21:12:00,
2013-10-23 17:17:00,48.2,36.2,29.59,NNW,343,0.0,1.0,63,0.00,,,0.00,Wunderground v.1.15,2013-10-23 21:17:00,
2013-10-23 17:22:00,48.1,36.9,29.59,NNW,336,0.0,0.0,65,0.00,,,0.00,Wunderground v.1.15,2013-10-23 21:22:00,
2013-10-23 17:28:00,48.0,37.2,29.59,NNW,336,0.0,0.0,66,0.00,,,0.00,Wunderground v.1.15,2013-10-23 21:28:00,
2013-10-23 17:34:00,47.8,36.6,29.60,NNW,336,0.0,0.0,65,0.00,,,0.00,Wunderground v.1.15,2013-10-23 21:34:00,
2013-10-23 17:39:00,47.6,36.4,29.60,NNW,336,0.0,0.0,65,0.00,,,0.00,Wunderground v.1.15,2013-10-23 21:39:00,
2013-10-23 17:46:00,47.4,37.0,29.60,NNW,336,0.0,0.0,67,0.00,,,0.00,Wunderground v.1.15,2013-10-23 21:46:00,
2013-10-23 17:51:00,47.2,36.8,29.60,NNW,336,0.0,0.0,67,0.00,,,0.00,Wunderground v.1.15,2013-10-23 21:51:00,
2013-10-23 17:57:00,47.0,37.0,29.60,NNW,336,0.0,0.0,68,0.00,,,0.00,Wunderground v.1.15,2013-10-23 21:57:00,
2013-10-23 18:03:00,46.7,36.7,29.61,NNW,336,0.0,0.0,68,0.00,,,0.00,Wunderground v.1.15,2013-10-23 22:03:00,
2013-10-23 18:08:00,46.5,37.2,29.60,NNW,336,0.0,1.0,70,0.00,,,0.00,Wunderground v.1.15,2013-10-23 22:08:00,
2013-10-23 18:14:00,46.3,37.0,29.60,NNW,336,0.0,1.0,70,0.00,,,0.00,Wunderground v.1.15,2013-10-23 22:14:00,
2013-10-23 18:21:00,46.1,36.9,29.60,NNW,336,0.0,0.0,70,0.00,,,0.00,Wunderground v.1.15,2013-10-23 22:21:00,
2013-10-23 18:26:00,45.9,37.0,29.59,NNW,336,0.0,0.0,71,0.00,,,0.00,Wunderground v.1.15,2013-10-23 22:26:00,
2013-10-23 18:32:00,45.7,36.8,29.60,NNW,336,0.0,0.0,71,0.00,,,0.00,Wunderground v.1.15,2013-10-23 22:32:00,
2013-10-23 18:38:00,45.5,37.0,29.61,NNW,336,0.0,1.0,72,0.00,,,0.00,Wunderground v.1.15,2013-10-23 22:38:00,
2013-10-23 18:44:00,45.2,36.7,29.61,NNW,336,0.0,1.0,72,0.00,,,0.00,Wunderground v.1.15,2013-10-23 22:44:00,
2013-10-23 18:49:00,45.0,36.9,29.60,NNW,336,0.0,1.0,73,0.00,,,0.00,Wunderground v.1.15,2013-10-23 22:49:00,
2013-10-23 18:56:00,44.7,36.9,29.61,NNW,336,0.0,1.0,74,0.00,,,0.00,Wunderground v.1.15,2013-10-23 22:56:00,
2013-10-23 19:02:00,44.4,36.6,29.61,NNW,336,0.0,2.0,74,0.00,,,0.00,Wunderground v.1.15,2013-10-23 23:02:00,
2013-10-23 19:07:00,44.3,36.9,29.62,NNW,336,0.0,2.0,75,0.00,,,0.00,Wunderground v.1.15,2013-10-23 23:07:00,
2013-10-23 19:13:00,44.2,36.8,29.62,NNW,336,0.0,0.0,75,0.00,,,0.00,Wunderground v.1.15,2013-10-23 23:13:00,
2013-10-23 19:19:00,44.1,36.7,29.61,NNW,336,0.0,0.0,75,0.00,,,0.00,Wunderground v.1.15,2013-10-23 23:19:00,
2013-10-23 19:26:00,43.9,36.5,29.60,NNW,336,0.0,1.0,75,0.00,,,0.00,Wunderground v.1.15,2013-10-23 23:26:00,
2013-10-23 19:31:00,43.8,36.7,29.60,NNW,336,0.0,1.0,76,0.00,,,0.00,Wunderground v.1.15,2013-10-23 23:31:00,
2013-10-23 19:36:00,43.6,36.5,29.60,NNW,336,0.0,1.0,76,0.00,,,0.00,Wunderground v.1.15,2013-10-23 23:36:00,
2013-10-23 19:42:00,43.3,36.2,29.59,NNW,336,1.0,1.0,76,0.00,,,0.00,Wunderground v.1.15,2013-10-23 23:42:00,
2013-10-23 19:48:00,43.0,36.3,29.59,NW,319,1.0,2.0,77,0.00,,,0.00,Wunderground v.1.15,2013-10-23 23:48:00,
2013-10-23 19:54:00,42.8,36.1,29.59,NW,319,1.0,2.0,77,0.00,,,0.00,Wunderground v.1.15,2013-10-23 23:54:00,
2013-10-23 20:01:00,42.6,36.2,29.59,WNW,294,1.0,1.0,78,0.00,,,0.00,Wunderground v.1.15,2013-10-24 00:01:00,
2013-10-23 20:06:00,42.4,36.0,29.60,WNW,294,1.0,1.0,78,0.00,,,0.00,Wunderground v.1.15,2013-10-24 00:06:00,
2013-10-23 20:12:00,42.3,35.9,29.60,WNW,294,0.0,1.0,78,0.00,,,0.00,Wunderground v.1.15,2013-10-24 00:12:00,
2013-10-23 20:17:00,42.2,35.8,29.59,WNW,294,0.0,1.0,78,0.00,,,0.00,Wunderground v.1.15,2013-10-24 00:17:00,
2013-10-23 20:23:00,42.1,35.7,29.59,WNW,294,0.0,0.0,78,0.00,,,0.00,Wunderground v.1.15,2013-10-24 00:23:00,
2013-10-23 20:29:00,42.1,35.7,29.60,WNW,294,0.0,1.0,78,0.00,,,0.00,Wunderground v.1.15,2013-10-24 00:29:00,
2013-10-23 20:36:00,42.0,35.6,29.60,WNW,294,0.0,1.0,78,0.00,,,0.00,Wunderground v.1.15,2013-10-24 00:36:00,
2013-10-23 20:41:00,41.9,35.5,29.60,WNW,294,0.0,0.0,78,0.00,,,0.00,Wunderground v.1.15,2013-10-24 00:41:00,
2013-10-23 20:47:00,41.9,35.5,29.61,WNW,294,0.0,0.0,78,0.00,,,0.00,Wunderground v.1.15,2013-10-24 00:47:00,
2013-10-23 20:52:00,41.8,35.4,29.61,WNW,294,0.0,0.0,78,0.00,,,0.00,Wunderground v.1.15,2013-10-24 00:52:00,
2013-10-23 20:58:00,41.7,35.3,29.61,North,10,0.0,1.0,78,0.00,,,0.00,Wunderground v.1.15,2013-10-24 00:58:00,
2013-10-23 21:04:00,41.7,35.7,29.61,North,11,1.0,1.0,79,0.00,,,0.00,Wunderground v.1.15,2013-10-24 01:04:00,
2013-10-23 21:09:00,41.7,35.7,29.61,NW,318,1.0,2.0,79,0.00,,,0.00,Wunderground v.1.15,2013-10-24 01:09:00,
2013-10-23 21:14:00,41.6,35.6,29.61,NW,319,1.0,1.0,79,0.00,,,0.00,Wunderground v.1.15,2013-10-24 01:14:00,
2013-10-23 21:21:00,41.7,35.7,29.61,NW,318,1.0,1.0,79,0.00,,,0.00,Wunderground v.1.15,2013-10-24 01:21:00,
2013-10-23 21:26:00,41.7,35.7,29.61,WNW,287,1.0,2.0,79,0.00,,,0.00,Wunderground v.1.15,2013-10-24 01:26:00,
2013-10-23 21:32:00,41.9,35.5,29.61,NW,306,1.0,2.0,78,0.00,,,0.00,Wunderground v.1.15,2013-10-24 01:32:00,
2013-10-23 21:37:00,42.1,35.7,29.61,NW,309,2.0,2.0,78,0.00,,,0.00,Wunderground v.1.15,2013-10-24 01:37:00,
2013-10-23 21:42:00,42.3,35.6,29.61,NW,312,2.0,2.0,77,0.00,,,0.00,Wunderground v.1.15,2013-10-24 01:42:00,
2013-10-23 21:47:00,42.6,35.6,29.61,WNW,300,2.0,3.0,76,0.00,,,0.00,Wunderground v.1.15,2013-10-24 01:47:00,
2013-10-23 21:53:00,42.9,35.9,29.62,WNW,296,2.0,2.0,76,0.00,,,0.00,Wunderground v.1.15,2013-10-24 01:53:00,
2013-10-23 21:59:00,43.2,35.8,29.62,NNW,328,2.0,5.0,75,0.00,,,0.00,Wunderground v.1.15,2013-10-24 01:59:00,
2013-10-23 22:06:00,43.3,35.6,29.61,WNW,298,2.0,3.0,74,0.00,,,0.00,Wunderground v.1.15,2013-10-24 02:06:00,
2013-10-23 22:12:00,43.4,35.7,29.61,WNW,299,2.0,3.0,74,0.00,,,0.00,Wunderground v.1.15,2013-10-24 02:12:00,
2013-10-23 22:18:00,43.5,35.8,29.62,NW,304,2.0,3.0,74,0.00,,,0.00,Wunderground v.1.15,2013-10-24 02:18:00,
2013-10-23 22:23:00,43.6,35.5,29.62,NW,314,1.0,1.0,73,0.00,,,0.00,Wunderground v.1.15,2013-10-24 02:23:00,
2013-10-23 22:28:00,43.6,35.9,29.61,NW,311,1.0,1.0,74,0.00,,,0.00,Wunderground v.1.15,2013-10-24 02:28:00,
2013-10-23 22:34:00,43.6,35.5,29.62,WNW,302,1.0,1.0,73,0.00,,,0.00,Wunderground v.1.15,2013-10-24 02:34:00,
2013-10-23 22:39:00,43.6,35.5,29.62,WNW,300,1.0,3.0,73,0.00,,,0.00,Wunderground v.1.15,2013-10-24 02:39:00,
2013-10-23 22:44:00,43.5,35.8,29.62,WNW,294,1.0,3.0,74,0.00,,,0.00,Wunderground v.1.15,2013-10-24 02:44:00,
2013-10-23 22:51:00,43.4,35.7,29.62,WNW,296,1.0,1.0,74,0.00,,,0.00,Wunderground v.1.15,2013-10-24 02:51:00,
2013-10-23 22:57:00,43.4,35.7,29.62,North,355,1.0,1.0,74,0.00,,,0.00,Wunderground v.1.15,2013-10-24 02:57:00,
2013-10-23 23:03:00,43.4,35.7,29.62,North,351,0.0,1.0,74,0.00,,,0.00,Wunderground v.1.15,2013-10-24 03:03:00,
2013-10-23 23:09:00,43.4,35.7,29.63,NNW,328,1.0,2.0,74,0.00,,,0.00,Wunderground v.1.15,2013-10-24 03:09:00,
2013-10-23 23:14:00,43.3,35.6,29.63,WNW,295,1.0,3.0,74,0.00,,,0.00,Wunderground v.1.15,2013-10-24 03:14:00,
2013-10-23 23:21:00,43.5,35.8,29.63,NW,326,1.0,1.0,74,0.00,,,0.00,Wunderground v.1.15,2013-10-24 03:21:00,
2013-10-23 23:26:00,43.7,35.6,29.63,NNW,344,2.0,2.0,73,0.00,,,0.00,Wunderground v.1.15,2013-10-24 03:26:00,
2013-10-23 23:32:00,44.0,35.6,29.62,NW,326,2.0,2.0,72,0.00,,,0.00,Wunderground v.1.15,2013-10-24 03:32:00,
2013-10-23 23:37:00,44.3,35.8,29.63,NNW,329,2.0,3.0,72,0.00,,,0.00,Wunderground v.1.15,2013-10-24 03:37:00,
2013-10-23 23:43:00,44.6,35.8,29.63,NNW,327,3.0,3.0,71,0.00,,,0.00,Wunderground v.1.15,2013-10-24 03:43:00,
2013-10-23 23:49:00,44.9,35.7,29.63,NW,311,2.0,3.0,70,0.00,,,0.00,Wunderground v.1.15,2013-10-24 03:49:00,
2013-10-23 23:56:00,45.0,35.4,29.64,NW,323,2.0,3.0,69,0.00,,,0.00,Wunderground v.1.15,2013-10-24 03:56:00,